Location: Caltech
(34.1382°N, 118.1253°W)
Time: 14:03:36
(UTC-07:00)

SL-08 RB Rocket - Visible Passes

Search period start: 21 April 2015 00:00
Search period end: 01 May 2015 00:00
Orbit: 650 x 686 km, 98.1° (Epoch: 21 April)

Date Brightness Start Highest point End Pass type
(mag) Time Alt. Az. Time Alt. Az. Time Alt. Az.
21 Apr 5.6 22:26:24 25° N 22:26:24 25° N 22:28:24 10° N visible
22 Apr 6.0 21:20:36 12° NE 21:20:36 12° NE 21:21:28 10° NE visible
22 Apr 6.1 22:58:45 21° NNW 22:58:45 21° NNW 23:00:23 10° NNW visible
23 Apr 5.5 21:52:57 21° NNE 21:52:57 21° NNE 21:55:03 10° NNE visible
23 Apr 6.6 23:31:06 12° NW 23:31:06 12° NW 23:31:41 10° NW visible
24 Apr 5.4 22:25:18 29° N 22:25:18 29° N 22:27:35 10° N visible
25 Apr 5.9 21:19:29 12° NE 21:19:29 12° NE 21:20:35 10° NE visible
25 Apr 5.9 22:57:39 24° NNW 22:57:39 24° NNW 22:59:35 10° NNW visible
26 Apr 5.4 21:51:51 23° NE 21:51:51 23° NE 21:54:12 10° NNE visible
26 Apr 6.5 23:29:59 14° NW 23:29:59 14° NW 23:30:53 10° NW visible
27 Apr 5.2 22:24:11 32° N 22:24:11 32° N 22:26:45 10° N visible
28 Apr 5.9 21:18:22 12° NE 21:18:22 12° NE 21:19:41 10° NE visible
28 Apr 5.7 22:56:32 27° NW 22:56:32 27° NW 22:58:45 10° NNW visible
29 Apr 5.3 21:50:43 24° NE 21:50:43 24° NE 21:53:19 10° NNE visible
29 Apr 6.4 23:28:53 15° NW 23:28:53 15° NW 23:30:05 10° NW visible
30 Apr 5.0 22:23:04 36° N 22:23:04 36° N 22:25:54 10° N visible
